�������l�o���
Date,Time,MP-1(��Sv/h),MP-2(��Sv/h),MP-3(��Sv/h),MP-4(��Sv/h),MP-5(��Sv/h),MP-6(��Sv/h),MP-7(��Sv/h),MP-8(��Sv/h),����,����(m/s),���J
2020/06/09,00:00,0.717,1.033,0.655,1.253,0.905,0.407,0.698,0.654,��쐼,4.0,��
2020/06/09,00:10,0.717,1.033,0.653,1.252,0.905,0.407,0.700,0.652,��쐼,3.2,��
2020/06/09,00:20,0.717,1.034,0.654,1.251,0.906,0.406,0.698,0.654,��,2.6,��
2020/06/09,00:30,0.716,1.035,0.654,1.252,0.904,0.406,0.699,0.654,��쐼,1.7,��
2020/06/09,00:40,0.716,1.034,0.654,1.250,0.905,0.405,0.699,0.654,��,1.7,��
2020/06/09,00:50,0.716,1.035,0.654,1.252,0.906,0.405,0.699,0.654,�쐼,0.9,��
2020/06/09,01:00,0.717,1.034,0.653,1.254,0.904,0.405,0.698,0.653,-,CALM,��
2020/06/09,01:10,0.716,1.033,0.653,1.252,0.905,0.406,0.698,0.653,��쓌,0.6,��
2020/06/09,01:20,0.717,1.033,0.654,1.253,0.904,0.406,0.700,0.655,-,CALM,��
2020/06/09,01:30,0.716,1.031,0.655,1.250,0.904,0.406,0.699,0.653,��쓌,0.8,��
2020/06/09,01:40,0.715,1.031,0.656,1.253,0.904,0.407,0.698,0.654,��쓌,0.8,��
2020/06/09,01:50,0.716,1.034,0.652,1.252,0.903,0.405,0.698,0.655,��쓌,0.9,��
2020/06/09,02:00,0.717,1.034,0.653,1.251,0.905,0.405,0.698,0.655,��쓌,0.9,��
2020/06/09,02:10,0.716,1.033,0.653,1.251,0.903,0.405,0.699,0.653,��,0.9,��
2020/06/09,02:20,0.715,1.034,0.654,1.251,0.903,0.405,0.697,0.654,��쐼,1.4,��
2020/06/09,02:30,0.716,1.033,0.653,1.251,0.904,0.405,0.697,0.653,��쐼,1.5,��
2020/06/09,02:40,0.715,1.031,0.653,1.251,0.904,0.406,0.699,0.653,�쐼,2.2,��
2020/06/09,02:50,0.716,1.032,0.654,1.250,0.903,0.405,0.698,0.653,�쐼,2.0,��
2020/06/09,03:00,0.715,1.033,0.653,1.249,0.903,0.404,0.699,0.653,�쐼,3.4,��
2020/06/09,03:10,0.714,1.033,0.653,1.250,0.904,0.404,0.699,0.654,�쐼,3.3,��
2020/06/09,03:20,0.716,1.032,0.653,1.247,0.906,0.404,0.697,0.653,�쐼,2.8,��
2020/06/09,03:30,0.716,1.028,0.653,1.250,0.903,0.404,0.698,0.653,���쐼,2.0,��
2020/06/09,03:40,0.716,1.031,0.654,1.249,0.902,0.405,0.699,0.652,���쐼,1.2,��
2020/06/09,03:50,0.714,1.032,0.652,1.250,0.904,0.404,0.700,0.653,�k��,1.2,��
2020/06/09,04:00,0.715,1.031,0.652,1.250,0.903,0.404,0.699,0.654,�k,2.5,��
2020/06/09,04:10,0.715,1.033,0.650,1.250,0.904,0.404,0.699,0.654,�k,3.2,��
2020/06/09,04:20,0.715,1.031,0.651,1.250,0.902,0.403,0.700,0.654,�k��,5.3,��
2020/06/09,04:30,0.715,1.031,0.653,1.247,0.904,0.403,0.700,0.653,�k��,5.2,��
2020/06/09,04:40,0.717,1.032,0.653,1.247,0.902,0.404,0.698,0.653,�k��,4.8,��
2020/06/09,04:50,0.714,1.032,0.652,1.250,0.900,0.404,0.699,0.653,�k�k��,5.2,��
2020/06/09,05:00,0.716,1.031,0.652,1.249,0.903,0.404,0.698,0.653,�k,5.5,��
2020/06/09,05:10,0.715,1.028,0.653,1.249,0.903,0.404,0.697,0.653,�k,4.2,��
2020/06/09,05:20,0.714,1.032,0.653,1.250,0.903,0.405,0.699,0.655,�k,3.3,��
2020/06/09,05:30,0.716,1.032,0.652,1.250,0.904,0.405,0.700,0.653,�k,3.0,��
2020/06/09,05:40,0.715,1.032,0.654,1.250,0.901,0.404,0.699,0.654,�k�k��,2.6,��
2020/06/09,05:50,0.716,1.031,0.654,1.246,0.903,0.403,0.698,0.653,�k,2.8,��
2020/06/09,06:00,0.716,1.031,0.652,1.250,0.902,0.403,0.701,0.652,�k,5.3,��
2020/06/09,06:10,0.716,1.032,0.652,1.252,0.902,0.402,0.699,0.653,�k�k��,3.4,��
2020/06/09,06:20,0.715,1.032,0.651,1.250,0.902,0.404,0.699,0.653,�k,2.6,��
2020/06/09,06:30,0.715,1.031,0.652,1.250,0.902,0.402,0.700,0.654,�k,1.5,��
2020/06/09,06:40,0.714,1.031,0.653,1.251,0.902,0.404,0.700,0.655,�k,1.7,��
2020/06/09,06:50,0.716,1.031,0.653,1.248,0.902,0.403,0.699,0.654,�k��,1.7,��
2020/06/09,07:00,0.716,1.026,0.653,1.250,0.904,0.402,0.699,0.654,�k��,1.2,��
2020/06/09,07:10,0.714,1.028,0.653,1.250,0.904,0.401,0.699,0.654,��,0.6,��
2020/06/09,07:20,0.715,1.028,0.651,1.250,0.904,0.402,0.698,0.654,�쓌,1.2,��
2020/06/09,07:30,0.715,1.032,0.653,1.250,0.904,0.402,0.697,0.655,���쓌,2.0,��
2020/06/09,07:40,0.715,1.028,0.653,1.250,0.904,0.401,0.699,0.653,���k��,1.7,��
2020/06/09,07:50,0.714,1.028,0.654,1.249,0.902,0.401,0.698,0.652,���k��,1.5,��
2020/06/09,08:00,0.715,1.030,0.654,1.248,0.903,0.400,0.697,0.652,��,1.7,��
2020/06/09,08:10,0.714,1.029,0.653,1.247,0.904,0.401,0.698,0.649,���쓌,1.7,��
2020/06/09,08:20,0.714,1.031,0.650,1.251,0.905,0.401,0.698,0.653,��,1.5,��
2020/06/09,08:30,0.714,1.027,0.651,1.249,0.903,0.402,0.697,0.651,��,1.2,��
2020/06/09,08:40,0.714,1.027,0.651,1.250,0.904,0.403,0.697,0.651,���k��,1.9,��
2020/06/09,08:50,0.713,1.030,0.653,1.248,0.901,0.401,0.697,0.651,���k��,2.0,��
2020/06/09,09:00,0.716,1.028,0.651,1.250,0.905,0.401,0.697,0.652,�k��,2.9,��
2020/06/09,09:10,0.714,1.022,0.651,1.249,0.904,0.402,0.698,0.653,�k��,3.7,��
2020/06/09,09:20,0.713,1.027,0.653,1.248,0.903,0.403,0.697,0.652,�k��,3.9,��
2020/06/09,09:30,0.715,1.023,0.651,1.250,0.902,0.402,0.696,0.652,�k��,5.1,��
2020/06/09,09:40,0.717,1.025,0.649,1.253,0.902,0.402,0.697,0.652,�k�k��,4.9,��
2020/06/09,09:50,0.715,1.027,0.651,1.249,0.903,0.401,0.697,0.652,�k��,3.9,��
2020/06/09,10:00,0.717,1.025,0.651,1.249,0.903,0.402,0.697,0.652,�k�k��,3.9,��
2020/06/09,10:10,0.717,1.028,0.653,1.252,0.903,0.401,0.697,0.652,�k��,3.2,��
2020/06/09,10:20,0.716,1.026,0.653,1.249,0.902,0.401,0.699,0.651,�k��,2.3,��
2020/06/09,10:30,0.717,1.026,0.653,1.251,0.903,0.402,0.700,0.653,�k��,3.1,��
2020/06/09,10:40,0.717,1.024,0.654,1.252,0.905,0.401,0.698,0.653,�k��,2.8,��
2020/06/09,10:50,0.717,1.024,0.653,1.251,0.905,0.402,0.698,0.652,���k��,3.0,��
2020/06/09,11:00,0.717,1.025,0.653,1.249,0.904,0.402,0.698,0.652,�k��,3.6,��
2020/06/09,11:10,0.718,1.026,0.653,1.249,0.906,0.402,0.700,0.652,�k��,3.7,��
2020/06/09,11:20,0.716,1.028,0.653,1.251,0.905,0.403,0.698,0.651,�k�k��,3.5,��
2020/06/09,11:30,0.719,1.029,0.654,1.246,0.905,0.401,0.699,0.652,�k��,3.6,��
2020/06/09,11:40,0.716,1.030,0.654,1.248,0.907,0.401,0.698,0.652,�k�k��,3.5,��
2020/06/09,11:50,0.717,1.030,0.655,1.247,0.906,0.402,0.698,0.652,�k��,2.9,��
2020/06/09,12:00,0.717,1.029,0.653,1.249,0.906,0.402,0.699,0.651,���k��,3.2,��
2020/06/09,12:10,0.718,1.032,0.653,1.252,0.906,0.403,0.699,0.656,���k��,3.4,��
2020/06/09,12:20,0.718,1.031,0.653,1.250,0.907,0.402,0.698,0.653,���k��,3.6,��
2020/06/09,12:30,0.717,1.033,0.653,1.249,0.906,0.401,0.699,0.651,���k��,3.3,��
2020/06/09,12:40,0.716,1.030,0.655,1.250,0.906,0.402,0.698,0.654,��,3.2,��
2020/06/09,12:50,0.717,1.034,0.654,1.252,0.908,0.401,0.699,0.651,���쓌,2.8,��
2020/06/09,13:00,0.716,1.028,0.646,1.250,0.906,0.402,0.699,0.654,���쓌,2.6,��
2020/06/09,13:10,0.717,1.033,0.635,1.249,0.906,0.402,0.699,0.653,���쓌,2.8,��
2020/06/09,13:20,0.716,1.032,0.642,1.250,0.907,0.402,0.699,0.652,���쓌,2.8,��
2020/06/09,13:30,0.718,1.031,0.640,1.248,0.907,0.402,0.698,0.652,�쓌,2.6,��
2020/06/09,13:40,0.715,1.027,0.641,1.251,0.906,0.402,0.699,0.653,���쓌,2.5,��
2020/06/09,13:50,0.718,1.027,0.642,1.250,0.907,0.402,0.699,0.653,���쓌,1.9,��
2020/06/09,14:00,0.719,1.029,0.648,1.253,0.906,0.401,0.699,0.652,���쓌,3.0,��
2020/06/09,14:10,0.717,1.030,0.648,1.250,0.908,0.401,0.700,0.654,�쓌,2.3,��
2020/06/09,14:20,0.719,1.028,0.645,1.251,0.905,0.401,0.700,0.653,�쓌,2.2,��
2020/06/09,14:30,0.716,1.028,0.645,1.252,0.908,0.403,0.701,0.653,�쓌,2.6,��
2020/06/09,14:40,0.718,1.031,0.643,1.254,0.906,0.402,0.700,0.652,�쓌,3.4,��
2020/06/09,14:50,0.718,1.034,0.647,1.255,0.904,0.402,0.699,0.652,�쓌,4.2,��
2020/06/09,15:00,0.718,1.031,0.647,1.256,0.907,0.401,0.701,0.651,�쓌,3.9,��
2020/06/09,15:10,0.719,1.033,0.646,1.254,0.907,0.401,0.699,0.653,�쓌,3.5,��
2020/06/09,15:20,0.718,1.032,0.647,1.251,0.906,0.401,0.701,0.653,��쓌,5.3,��
2020/06/09,15:30,0.718,1.034,0.646,1.251,0.905,0.401,0.701,0.653,��쓌,6.1,��
2020/06/09,15:40,0.716,1.034,0.646,1.253,0.907,0.402,0.698,0.652,��쓌,3.9,��
2020/06/09,15:50,0.717,1.034,0.647,1.255,0.905,0.402,0.700,0.651,��쓌,3.5,��
2020/06/09,16:00,0.717,1.034,0.646,1.254,0.907,0.403,0.698,0.652,�쓌,3.6,��
2020/06/09,16:10,0.718,1.037,0.644,1.255,0.905,0.404,0.700,0.652,�쓌,4.0,��
2020/06/09,16:20,0.718,1.036,0.645,1.254,0.907,0.402,0.699,0.653,�쓌,2.3,��
2020/06/09,16:30,0.717,1.038,0.644,1.252,0.905,0.401,0.699,0.652,�쓌,2.8,��
2020/06/09,16:40,0.716,1.040,0.645,1.254,0.906,0.401,0.699,0.653,���쓌,2.8,��
2020/06/09,16:50,0.718,1.037,0.646,1.254,0.906,0.401,0.698,0.652,���쓌,2.3,��
2020/06/09,17:00,0.717,1.038,0.645,1.253,0.907,0.402,0.699,0.653,���쓌,2.6,��
2020/06/09,17:10,0.718,1.040,0.646,1.252,0.907,0.404,0.699,0.652,�쓌,2.6,��
2020/06/09,17:20,0.717,1.037,0.647,1.253,0.905,0.404,0.699,0.652,�쓌,2.6,��
2020/06/09,17:30,0.717,1.036,0.644,1.253,0.904,0.405,0.699,0.653,��쓌,2.9,��
2020/06/09,17:40,0.717,1.037,0.645,1.254,0.905,0.404,0.698,0.654,��쓌,2.5,��
2020/06/09,17:50,0.718,1.036,0.648,1.254,0.906,0.403,0.700,0.653,��쓌,3.4,��
2020/06/09,18:00,0.716,1.040,0.646,1.255,0.906,0.405,0.697,0.654,��쓌,3.4,��
2020/06/09,18:10,0.717,1.038,0.648,1.256,0.905,0.403,0.699,0.654,��쓌,4.4,��
2020/06/09,18:20,0.717,1.040,0.648,1.256,0.907,0.403,0.696,0.656,��쓌,3.7,��
2020/06/09,18:30,0.721,1.041,0.647,1.254,0.908,0.404,0.699,0.653,��쓌,2.9,��
2020/06/09,18:40,0.720,1.039,0.646,1.255,0.905,0.403,0.699,0.656,��,3.7,��
2020/06/09,18:50,0.718,1.038,0.647,1.257,0.905,0.406,0.698,0.655,��쓌,3.0,��
2020/06/09,19:00,0.720,1.038,0.647,1.250,0.906,0.404,0.699,0.655,��쓌,2.5,��
2020/06/09,19:10,0.718,1.037,0.648,1.256,0.907,0.405,0.700,0.655,��,2.0,��
2020/06/09,19:20,0.718,1.039,0.648,1.255,0.907,0.405,0.700,0.656,��,2.0,��
2020/06/09,19:30,0.717,1.037,0.649,1.255,0.908,0.405,0.701,0.656,��쓌,2.6,��
2020/06/09,19:40,0.717,1.039,0.649,1.256,0.907,0.404,0.699,0.655,��쓌,2.9,��
2020/06/09,19:50,0.718,1.039,0.650,1.257,0.910,0.405,0.700,0.656,��,2.5,��
2020/06/09,20:00,0.717,1.040,0.650,1.255,0.908,0.405,0.699,0.653,��쐼,1.7,��
2020/06/09,20:10,0.719,1.039,0.647,1.257,0.908,0.407,0.702,0.656,��,2.0,��
2020/06/09,20:20,0.718,1.039,0.649,1.256,0.906,0.404,0.701,0.653,��,1.7,��
2020/06/09,20:30,0.720,1.039,0.648,1.257,0.908,0.405,0.701,0.653,��,1.7,��
2020/06/09,20:40,0.718,1.038,0.648,1.252,0.908,0.406,0.700,0.656,��,1.5,��
2020/06/09,20:50,0.718,1.040,0.648,1.255,0.908,0.405,0.701,0.656,��,0.6,��
2020/06/09,21:00,0.718,1.039,0.649,1.257,0.908,0.405,0.701,0.656,��쓌,0.8,��
2020/06/09,21:10,0.717,1.039,0.648,1.257,0.909,0.405,0.699,0.655,���k��,0.6,��
2020/06/09,21:20,0.720,1.040,0.647,1.255,0.908,0.405,0.698,0.654,�k��,1.2,��
2020/06/09,21:30,0.720,1.040,0.649,1.257,0.908,0.405,0.700,0.655,�k��,1.2,��
2020/06/09,21:40,0.718,1.039,0.647,1.257,0.908,0.405,0.701,0.655,�k��,1.2,��
2020/06/09,21:50,0.719,1.039,0.648,1.258,0.906,0.406,0.699,0.656,���k��,0.9,��
2020/06/09,22:00,0.717,1.040,0.648,1.256,0.908,0.406,0.698,0.657,-,CALM,��
2020/06/09,22:10,0.718,1.036,0.647,1.257,0.907,0.405,0.702,0.654,�k�k��,2.3,��
2020/06/09,22:20,0.717,1.040,0.650,1.255,0.907,0.406,0.700,0.654,�k��,3.1,��
2020/06/09,22:30,0.719,1.038,0.648,1.258,0.907,0.404,0.700,0.656,�k�k��,3.2,��
2020/06/09,22:40,0.720,1.039,0.648,1.257,0.907,0.404,0.700,0.655,�k�k��,3.4,��
2020/06/09,22:50,0.718,1.037,0.647,1.255,0.906,0.406,0.699,0.654,�k�k��,2.8,��
2020/06/09,23:00,0.719,1.035,0.648,1.255,0.908,0.406,0.700,0.654,�k�k��,3.1,��
2020/06/09,23:10,0.719,1.039,0.649,1.255,0.907,0.404,0.700,0.655,�k�k��,2.8,��
2020/06/09,23:20,0.718,1.037,0.649,1.256,0.910,0.406,0.700,0.655,�k�k��,2.2,��
2020/06/09,23:30,0.719,1.039,0.648,1.256,0.908,0.407,0.700,0.655,�k�k��,2.0,��
2020/06/09,23:40,0.719,1.036,0.649,1.255,0.909,0.407,0.701,0.655,�k��,1.5,��
2020/06/09,23:50,0.719,1.039,0.649,1.256,0.908,0.406,0.699,0.656,�k�k��,1.4,��
